USA 324

Last updated on Tue Sep 03 2024 00:02:46 GMT+0000 (Coordinated Universal Time)

1 51280U 22006A 24245.30806179 -.00000373 00000+0 00000+0 0 9999 2 51280 1.5574 87.3122 0001485 63.8248 64.4114 1.00091944 9571
UTC large
Height (km)
Speed (km/s)
/
Latitude / Longitude
Inclination (degrees)
Orbital Period (minutes)
Azimuth
Elevation
Range (km)
Doppler Factor

Next 0 passes for location: London (51.5072 / 0.1276)

Sorry there are no passes over London.